Friday Harbor, WA
on Monday, December 17, 2012

Monday
Previous Day Next Day
Daily Summary
 ActualAverageRecord
Temperature
Mean Temperature °F °F  
Max Temperature 45°F 43°F 51°F (2011)
Min Temperature 33°F 34°F 23°F (2008)
Degree Days
Heating Degree Days 26    
Moisture
Dew Point 35°F   
Average Humidity 86    
Maximum Humidity 100    
Minimum Humidity 70    
Precipitation
Precipitation 0.16 in in in ()
Wind
Wind Speed 8 mph   
Max Wind Speed 18 mph   
Max Gust Speed 30 mph   
Visibility 8 miles   
Events Rain , Snow   
Averages and records for this station are not official NWS values.
Key: T is trace of precipitation, MM is missing value
Source: NWS Daily Summary
Seasonal Weather Averages
Time(PST)TemperatureDew PointHumidity Pressure Visibility Wind DirectionWind SpeedGust SpeedPrecipitationEvents Conditions
12:53 AM 45.0°F 41.0°F 86% 28.92 in 10.0 miles ESE 12.7 mph 20.7 mph N/A   Overcast
1:21 AM 44.6°F 39.2°F 81% 28.92 in 10.0 miles SSE 17.3 mph 23.0 mph N/A   Overcast
1:35 AM 44.6°F 41.0°F 87% 28.92 in 10.0 miles SSE 11.5 mph 21.9 mph 0.00 in Rain Light Rain
1:53 AM 44.1°F 41.0°F 89% 28.92 in 6.0 miles South 9.2 mph 18.4 mph 0.02 in Rain Rain
2:53 AM 45.0°F 42.1°F 90% 28.94 in 10.0 miles ESE 9.2 mph - 0.03 in   Overcast
3:34 AM 42.8°F 39.2°F 87% 28.96 in 10.0 miles SW 3.5 mph - N/A   Mostly Cloudy
3:53 AM 42.1°F 39.9°F 92% 28.98 in 10.0 miles Calm Calm - N/A   Mostly Cloudy
4:12 AM 42.8°F 39.2°F 87% 29.00 in 4.0 miles Variable 4.6 mph - 0.01 in Rain Rain
4:21 AM 42.8°F 41.0°F 93% 29.02 in 4.0 miles Variable 5.8 mph - 0.03 in Rain Light Rain
4:33 AM 39.2°F 37.4°F 93% 29.04 in 5.0 miles Variable 5.8 mph - 0.04 in Rain Rain
4:53 AM 39.0°F 36.0°F 89% 29.08 in 8.0 miles Variable 5.8 mph - 0.05 in Rain Light Rain
5:02 AM 37.4°F 35.6°F 93% 29.09 in 5.0 miles Calm Calm - 0.01 in Rain Light Rain
5:20 AM 35.6°F 33.8°F 93% 29.12 in 9.0 miles Variable 6.9 mph - 0.02 in Rain Light Rain
5:27 AM 35.6°F 33.8°F 93% 29.13 in 9.0 miles Variable 6.9 mph - 0.02 in Rain Light Rain
5:36 AM 35.6°F 33.8°F 93% 29.15 in 5.0 miles Variable 5.8 mph - 0.03 in Snow Light Snow
5:46 AM 33.8°F 33.8°F 100% 29.17 in 3.0 miles WSW 3.5 mph - 0.04 in Snow Light Snow
5:53 AM 33.1°F 32.0°F 96% 29.18 in 2.0 miles West 3.5 mph - 0.05 in Snow Light Snow
6:00 AM 33.8°F 32.0°F 93% 29.18 in 3.0 miles Calm Calm - 0.00 in Snow Light Snow
6:53 AM 35.1°F 34.0°F 96% 29.26 in 10.0 miles Calm Calm - 0.01 in Rain Light Rain
7:22 AM 35.6°F 35.6°F 100% 29.29 in 10.0 miles Calm Calm - 0.00 in   Overcast
7:53 AM 35.1°F 35.1°F 100% 29.34 in 10.0 miles Calm Calm - 0.00 in   Overcast
8:53 AM 36.0°F 35.1°F 97% 29.39 in 10.0 miles NNW 3.5 mph - N/A   Mostly Cloudy
9:53 AM 41.0°F 36.0°F 82% 29.45 in 10.0 miles SW 12.7 mph 29.9 mph N/A   Overcast
10:53 AM 41.0°F 34.0°F 76% 29.51 in 10.0 miles SW 8.1 mph - N/A   Overcast
11:53 AM 41.0°F 33.1°F 73% 29.55 in 10.0 miles SW 16.1 mph 28.8 mph N/A   Mostly Cloudy
12:53 PM 41.0°F 32.0°F 70% 29.58 in 10.0 miles SW 18.4 mph 28.8 mph N/A   Clear
1:53 PM 42.1°F 33.1°F 70% 29.60 in 10.0 miles SW 13.8 mph 23.0 mph N/A   Clear
4:53 PM 39.0°F 30.0°F 70% 29.72 in 10.0 miles SW 11.5 mph 25.3 mph N/A   Clear
5:53 PM 39.0°F 32.0°F 76% 29.75 in 10.0 miles SW 10.4 mph 23.0 mph N/A   Partly Cloudy
6:53 PM 37.9°F 30.9°F 76% 29.78 in 10.0 miles SW 8.1 mph - N/A   Clear
7:53 PM 39.0°F 30.9°F 73% 29.81 in 10.0 miles Variable 6.9 mph - N/A   Mostly Cloudy
8:02 PM 37.4°F 32.0°F 81% 29.82 in 9.0 miles WSW 11.5 mph 24.2 mph 0.00 in Snow Light Snow
8:15 PM 35.6°F 32.0°F 87% 29.81 in 9.0 miles WSW 5.8 mph - 0.00 in   Overcast
8:53 PM 37.9°F 30.0°F 73% 29.83 in 10.0 miles Variable 4.6 mph - 0.00 in   Overcast
9:53 PM 37.0°F 30.9°F 79% 29.85 in 10.0 miles Calm Calm - N/A   Overcast
10:53 PM 36.0°F 30.9°F 82% 29.85 in 10.0 miles South 4.6 mph - N/A   Mostly Cloudy
11:53 PM 34.0°F 30.9°F 89% 29.85 in 10.0 miles Calm Calm - N/A   Mostly Cloudy
Moon Phase
Dec. 17 Dec. 20 Dec. 28 Jan. 04 Jan. 11
Sunrise:07:59 AM (PST) Moon Rise:10:49 AM (PST)12/17
Sunset:04:17 PM (PST) Moon Set:10:09 PM (PST)12/17

Copyright © 2014 The Weather Underground, Inc.